QPF
0.03 0.03 0.07 0.05 0.04 0.05 0.04 0.04 0.03 0.04 0.04 0.04 0.03 0.04 0.06 0.05 0.04 0.04 0.04 0.04 0.04 0.06 0.06 0.05 0.04 0.05 0.05 0.05 0.07 0.07 0.06 0.06 0.07 0.06 0.06 0.06 0.05 0.04 0.04 0.03 0.02 0.02 0.02
0.03 0.03 0.06 0.04 0.03 0.03 0.03 0.04 0.03 0.03 0.03 0.04 0.03 0.03 0.05 0.06 0.05 0.04 0.04 0.03 0.03 0.04 0.03 0.03 0.03 0.05 0.05 0.04 0.06 0.06 0.04 0.04 0.05 0.05 0.05 0.06 0.06 0.06 0.04 0.03 0.03 0.03 0.04
0.01 0.01 0.03 0.04 0.04 0.03 0.03 0.03 0.03 0.04 0.03 0.03 0.03 0.03 0.04 0.06 0.08 0.06 0.03 0.03 0.03 0.03 0.03 0.03 0.05 0.04 0.05 0.04 0.03 0.03 0.04 0.05 0.04 0.03 0.03 0.02 0.03 0.06 0.06 0.05 0.05 0.06 0.08
0.01 0.00 0.01 0.03 0.03 0.04 0.04 0.03 0.02 0.03 0.03 0.02 0.03 0.02 0.02 0.06 0.07 0.06 0.05 0.04 0.04 0.03 0.03 0.05 0.07 0.05 0.06 0.05 0.04 0.03 0.03 0.04 0.03 0.03 0.01 0.02 0.03 0.07 0.07 0.07 0.05 0.06 0.08
0.01 0.01 0.02 0.02 0.03 0.04 0.04 0.03 0.02 0.03 0.03 0.02 0.02 0.02 0.02 0.05 0.09 0.06 0.06 0.06 0.03 0.03 0.03 0.03 0.06 0.06 0.06 0.06 0.05 0.05 0.04 0.04 0.04 0.03 0.01 0.02 0.03 0.07 0.07 0.07 0.06 0.06 0.06
0.01 0.01 0.02 0.02 0.02 0.04 0.06 0.06 0.03 0.03 0.03 0.03 0.04 0.04 0.03 0.04 0.08 0.08 0.06 0.06 0.05 0.03 0.03 0.02 0.04 0.05 0.06 0.06 0.06 0.05 0.04 0.04 0.04 0.02 0.02 0.03 0.05 0.07 0.07 0.06 0.07 0.05 0.05
0.01 0.01 0.02 0.03 0.02 0.03 0.06 0.06 0.04 0.04 0.04 0.05 0.04 0.06 0.04 0.05 0.07 0.07 0.05 0.04 0.04 0.05 0.04 0.02 0.02 0.04 0.05 0.07 0.09 0.06 0.05 0.08 0.06 0.02 0.02 0.03 0.07 0.11 0.08 0.06 0.06 0.06 0.05
0.01 0.04 0.04 0.02 0.03 0.03 0.05 0.04 0.04 0.05 0.04 0.05 0.04 0.05 0.05 0.06 0.06 0.05 0.05 0.04 0.04 0.05 0.06 0.04 0.03 0.04 0.04 0.07 0.10 0.07 0.06 0.06 0.04 0.02 0.02 0.03 0.07 0.10 0.10 0.07 0.07 0.07 0.07
0.02 0.10 0.14 0.04 0.02 0.04 0.05 0.03 0.03 0.03 0.03 0.03 0.03 0.04 0.04 0.04 0.05 0.04 0.03 0.03 0.03 0.03 0.04 0.04 0.03 0.05 0.04 0.07 0.12 0.10 0.07 0.05 0.04 0.04 0.03 0.04 0.08 0.08 0.08 0.06 0.06 0.06 0.08
0.02 0.10 0.20 0.15 0.06 0.03 0.03 0.02 0.01 0.02 0.02 0.01 0.02 0.02 0.02 0.03 0.04 0.03 0.02 0.02 0.03 0.02 0.02 0.02 0.02 0.04 0.04 0.07 0.13 0.14 0.08 0.04 0.03 0.06 0.06 0.07 0.09 0.10 0.10 0.07 0.06 0.06 0.06
0.02 0.04 0.09 0.11 0.08 0.03 0.02 0.01 0.01 0.01 0.02 0.02 0.01 0.01 0.01 0.01 0.01 0.02 0.03 0.04 0.03 0.02 0.02 0.02 0.03 0.04 0.04 0.05 0.10 0.14 0.11 0.05 0.04 0.05 0.06 0.09 0.11 0.10 0.09 0.08 0.09 0.07 0.07
0.01 0.02 0.03 0.04 0.04 0.02 0.01 0.01 0.00 0.01 0.01 0.01 0.01 0.01 0.01 0.01 0.01 0.02 0.04 0.05 0.04 0.05 0.04 0.03 0.03 0.04 0.03 0.03 0.06 0.09 0.09 0.07 0.07 0.07 0.07 0.10 0.09 0.09 0.08 0.08 0.08 0.09 0.10
0.02 0.02 0.02 0.02 0.03 0.03 0.02 0.01 0.01 0.01 0.01 0.01 0.00 0.00 0.01 0.01 0.01 0.02 0.03 0.04 0.04 0.04 0.03 0.02 0.02 0.04 0.04 0.04 0.05 0.07 0.09 0.10 0.10 0.07 0.06 0.08 0.09 0.08 0.06 0.06 0.06 0.07 0.07
0.02 0.02 0.03 0.02 0.02 0.03 0.03 0.02 0.02 0.01 0.01 0.01 0.01 0.01 0.01 0.00 0.01 0.02 0.03 0.04 0.03 0.03 0.02 0.02 0.02 0.04 0.05 0.04 0.04 0.06 0.09 0.11 0.10 0.08 0.07 0.08 0.08 0.08 0.07 0.06 0.07 0.07 0.07
0.02 0.02 0.02 0.02 0.02 0.02 0.03 0.04 0.03 0.03 0.02 0.01 0.01 0.01 0.00 0.01 0.00 0.01 0.01 0.01 0.03 0.03 0.03 0.02 0.02 0.02 0.04 0.04 0.05 0.06 0.09 0.12 0.11 0.12 0.11 0.09 0.08 0.07 0.08 0.09 0.13 0.12 0.11
0.02 0.02 0.02 0.01 0.01 0.02 0.02 0.03 0.03 0.03 0.03 0.02 0.01 0.01 0.00 0.00 0.00 0.00 0.01 0.01 0.01 0.02 0.02 0.02 0.02 0.03 0.04 0.04 0.05 0.08 0.10 0.09 0.08 0.10 0.10 0.09 0.07 0.06 0.07 0.07 0.12 0.12 0.11
0.02 0.02 0.01 0.01 0.01 0.01 0.02 0.04 0.04 0.04 0.03 0.04 0.03 0.02 0.01 0.01 0.01 0.00 0.01 0.01 0.01 0.02 0.02 0.02 0.02 0.02 0.02 0.03 0.05 0.05 0.04 0.04 0.05 0.07 0.08 0.08 0.07 0.06 0.07 0.06 0.06 0.05 0.04
0.02 0.02 0.02 0.02 0.03 0.02 0.02 0.03 0.03 0.02 0.02 0.03 0.03 0.02 0.02 0.01 0.00 0.00 0.00 0.01 0.01 0.03 0.04 0.03 0.02 0.03 0.03 0.04 0.05 0.04 0.04 0.04 0.05 0.07 0.07 0.06 0.06 0.05 0.05 0.07 0.06 0.04 0.03
0.01 0.02 0.01 0.02 0.04 0.04 0.03 0.03 0.03 0.03 0.03 0.03 0.04 0.03 0.01 0.01 0.00 0.00 0.00 0.00 0.01 0.02 0.04 0.04 0.03 0.03 0.03 0.04 0.04 0.04 0.06 0.07 0.07 0.08 0.09 0.07 0.05 0.03 0.04 0.05 0.07 0.06 0.04
0.01 0.01 0.01 0.01 0.02 0.04 0.05 0.04 0.02 0.02 0.02 0.02 0.03 0.04 0.02 0.01 0.00 0.00 0.00 0.00 0.00 0.01 0.02 0.02 0.03 0.03 0.03 0.05 0.05 0.05 0.06 0.06 0.07 0.07 0.07 0.06 0.05 0.03 0.03 0.04 0.04 0.04 0.03
0.01 0.01 0.01 0.01 0.02 0.02 0.04 0.04 0.02 0.01 0.01 0.01 0.02 0.03 0.04 0.03 0.01 0.00 0.00 0.00 0.00 0.01 0.01 0.01 0.01 0.02 0.03 0.04 0.04 0.05 0.05 0.03 0.04 0.04 0.04 0.04 0.04 0.04 0.04 0.04 0.02 0.02 0.02
0.02 0.02 0.01 0.01 0.02 0.02 0.03 0.02 0.02 0.02 0.02 0.02 0.01 0.02 0.03 0.03 0.02 0.01 0.00 0.00 0.00 0.00 0.01 0.01 0.01 0.02 0.03 0.04 0.03 0.02 0.02 0.03 0.04 0.04 0.03 0.03 0.04 0.04 0.03 0.03 0.03 0.02 0.02
0.03 0.03 0.03 0.02 0.02 0.02 0.02 0.02 0.02 0.03 0.03 0.02 0.01 0.02 0.03 0.03 0.02 0.01 0.01 0.00 0.01 0.01 0.01 0.01 0.01 0.01 0.01 0.01 0.01 0.01 0.02 0.02 0.03 0.03 0.03 0.02 0.03 0.04 0.04 0.03 0.02 0.02 0.02
0.02 0.02 0.02 0.03 0.04 0.04 0.03 0.03 0.03 0.02 0.01 0.01 0.01 0.02 0.02 0.03 0.03 0.01 0.01 0.00 0.01 0.01 0.02 0.01 0.01 0.01 0.01 0.01 0.01 0.01 0.01 0.01 0.01 0.01 0.01 0.01 0.02 0.03 0.03 0.03 0.02 0.02 0.01
0.01 0.01 0.01 0.01 0.02 0.04 0.04 0.03 0.03 0.03 0.02 0.01 0.02 0.03 0.03 0.03 0.03 0.01 0.01 0.01 0.01 0.01 0.01 0.02 0.01 0.01 0.00 0.01 0.01 0.01 0.01 0.01 0.01 0.01 0.01 0.01 0.02 0.02 0.02 0.03 0.02 0.01 0.01
0.01 0.01 0.00 0.00 0.01 0.03 0.04 0.04 0.04 0.03 0.02 0.02 0.02 0.03 0.02 0.03 0.03 0.02 0.01 0.00 0.00 0.00 0.01 0.01 0.01 0.01 0.00 0.00 0.00 0.00 0.01 0.01 0.01 0.01 0.01 0.01 0.02 0.02 0.02 0.03 0.03 0.02 0.01
MSLP
1013.43 1012.95 1012.59 1012.43 1012.46 1012.62 1012.85 1013.06 1013.20 1013.23 1013.16 1013.05 1012.96 1012.93 1013.00 1013.15 1013.37 1013.60 1013.77 1013.85 1013.82 1013.71 1013.55 1013.38 1013.24 1013.16 1013.14 1013.16 1013.18 1013.17 1013.12 1013.01 1012.86 1012.67 1012.46 1012.26 1012.07 1011.87 1011.67 1011.46 1011.22 1010.97 1010.70
1013.28 1012.90 1012.65 1012.58 1012.67 1012.88 1013.14 1013.35 1013.48 1013.50 1013.43 1013.34 1013.27 1013.28 1013.39 1013.59 1013.84 1014.08 1014.26 1014.33 1014.30 1014.19 1014.02 1013.84 1013.70 1013.61 1013.57 1013.56 1013.56 1013.53 1013.47 1013.36 1013.21 1013.05 1012.88 1012.71 1012.53 1012.35 1012.14 1011.90 1011.63 1011.33 1011.03
1013.11 1012.83 1012.67 1012.68 1012.85 1013.10 1013.38 1013.61 1013.74 1013.77 1013.73 1013.66 1013.63 1013.67 1013.81 1014.02 1014.27 1014.50 1014.67 1014.73 1014.69 1014.58 1014.42 1014.26 1014.13 1014.05 1014.01 1013.99 1013.97 1013.93 1013.85 1013.75 1013.61 1013.47 1013.32 1013.18 1013.02 1012.84 1012.63 1012.37 1012.07 1011.74 1011.40
1012.96 1012.76 1012.68 1012.76 1012.98 1013.28 1013.58 1013.83 1013.98 1014.03 1014.02 1013.99 1013.99 1014.06 1014.22 1014.43 1014.66 1014.86 1014.99 1015.04 1014.99 1014.89 1014.76 1014.64 1014.55 1014.51 1014.49 1014.48 1014.45 1014.40 1014.31 1014.20 1014.07 1013.94 1013.81 1013.67 1013.52 1013.34 1013.12 1012.84 1012.52 1012.17 1011.81
1012.86 1012.72 1012.71 1012.85 1013.11 1013.43 1013.76 1014.02 1014.20 1014.28 1014.31 1014.32 1014.36 1014.46 1014.62 1014.81 1015.01 1015.17 1015.27 1015.29 1015.24 1015.16 1015.07 1015.01 1014.98 1014.99 1015.01 1015.03 1015.01 1014.95 1014.86 1014.73 1014.59 1014.45 1014.31 1014.18 1014.02 1013.83 1013.59 1013.29 1012.95 1012.59 1012.22
1012.85 1012.76 1012.79 1012.97 1013.26 1013.60 1013.93 1014.20 1014.40 1014.51 1014.58 1014.64 1014.72 1014.85 1015.02 1015.20 1015.36 1015.48 1015.54 1015.53 1015.48 1015.42 1015.39 1015.39 1015.43 1015.51 1015.58 1015.63 1015.63 1015.58 1015.47 1015.32 1015.16 1014.99 1014.83 1014.67 1014.49 1014.27 1014.02 1013.71 1013.36 1012.99 1012.63
1012.95 1012.89 1012.97 1013.17 1013.47 1013.80 1014.13 1014.40 1014.60 1014.74 1014.85 1014.96 1015.09 1015.25 1015.43 1015.61 1015.75 1015.83 1015.85 1015.82 1015.76 1015.73 1015.73 1015.79 1015.90 1016.04 1016.17 1016.26 1016.28 1016.22 1016.10 1015.93 1015.74 1015.54 1015.34 1015.15 1014.93 1014.69 1014.41 1014.10 1013.75 1013.39 1013.04
1013.15 1013.13 1013.24 1013.46 1013.76 1014.08 1014.39 1014.64 1014.84 1014.99 1015.13 1015.29 1015.47 1015.67 1015.87 1016.05 1016.18 1016.23 1016.22 1016.17 1016.11 1016.08 1016.12 1016.22 1016.39 1016.57 1016.75 1016.87 1016.90 1016.85 1016.72 1016.53 1016.31 1016.08 1015.84 1015.60 1015.36 1015.09 1014.80 1014.48 1014.15 1013.81 1013.48
1013.43 1013.47 1013.61 1013.85 1014.15 1014.44 1014.71 1014.94 1015.11 1015.27 1015.43 1015.62 1015.85 1016.09 1016.33 1016.53 1016.65 1016.69 1016.66 1016.59 1016.52 1016.50 1016.54 1016.67 1016.85 1017.07 1017.27 1017.41 1017.47 1017.42 1017.29 1017.09 1016.85 1016.59 1016.32 1016.05 1015.78 1015.50 1015.20 1014.89 1014.57 1014.27 1013.97
1013.76 1013.85 1014.05 1014.31 1014.59 1014.87 1015.10 1015.28 1015.43 1015.57 1015.74 1015.96 1016.22 1016.50 1016.77 1017.00 1017.13 1017.18 1017.14 1017.05 1016.97 1016.93 1016.97 1017.10 1017.29 1017.51 1017.73 1017.88 1017.95 1017.92 1017.79 1017.59 1017.35 1017.08 1016.80 1016.52 1016.23 1015.94 1015.65 1015.35 1015.06 1014.79 1014.53
1014.06 1014.23 1014.47 1014.76 1015.05 1015.30 1015.49 1015.63 1015.74 1015.87 1016.03 1016.27 1016.55 1016.87 1017.17 1017.42 1017.58 1017.63 1017.60 1017.51 1017.42 1017.37 1017.40 1017.51 1017.69 1017.91 1018.12 1018.28 1018.36 1018.35 1018.24 1018.06 1017.83 1017.57 1017.30 1017.01 1016.73 1016.44 1016.16 1015.88 1015.62 1015.37 1015.14
1014.28 1014.52 1014.83 1015.15 1015.44 1015.68 1015.84 1015.95 1016.03 1016.13 1016.29 1016.52 1016.82 1017.16 1017.49 1017.76 1017.94 1018.02 1018.00 1017.92 1017.83 1017.79 1017.80 1017.90 1018.07 1018.28 1018.48 1018.65 1018.74 1018.75 1018.67 1018.52 1018.32 1018.08 1017.82 1017.55 1017.28 1017.00 1016.73 1016.47 1016.23 1016.01 1015.80
1014.37 1014.68 1015.04 1015.39 1015.70 1015.93 1016.08 1016.17 1016.23 1016.32 1016.47 1016.70 1017.01 1017.35 1017.69 1017.99 1018.19 1018.30 1018.31 1018.26 1018.20 1018.17 1018.19 1018.29 1018.45 1018.65 1018.85 1019.02 1019.12 1019.15 1019.11 1019.00 1018.83 1018.62 1018.39 1018.14 1017.87 1017.61 1017.34 1017.09 1016.87 1016.66 1016.48
1014.31 1014.67 1015.07 1015.45 1015.78 1016.02 1016.17 1016.26 1016.33 1016.42 1016.57 1016.79 1017.10 1017.44 1017.79 1018.09 1018.32 1018.46 1018.51 1018.52 1018.51 1018.51 1018.57 1018.69 1018.85 1019.06 1019.26 1019.43 1019.55 1019.60 1019.59 1019.51 1019.37 1019.19 1018.98 1018.74 1018.49 1018.23 1017.97 1017.72 1017.50 1017.30 1017.13
1014.12 1014.50 1014.92 1015.32 1015.67 1015.93 1016.10 1016.22 1016.31 1016.42 1016.58 1016.81 1017.10 1017.44 1017.78 1018.08 1018.33 1018.51 1018.63 1018.70 1018.76 1018.83 1018.95 1019.10 1019.30 1019.51 1019.72 1019.90 1020.03 1020.09 1020.10 1020.04 1019.94 1019.78 1019.58 1019.35 1019.11 1018.84 1018.58 1018.33 1018.11 1017.91 1017.73
1013.85 1014.23 1014.64 1015.05 1015.40 1015.68 1015.90 1016.06 1016.19 1016.34 1016.53 1016.77 1017.05 1017.37 1017.70 1018.00 1018.27 1018.49 1018.67 1018.82 1018.97 1019.13 1019.32 1019.53 1019.77 1020.01 1020.23 1020.41 1020.55 1020.62 1020.64 1020.60 1020.51 1020.36 1020.18 1019.95 1019.70 1019.44 1019.17 1018.91 1018.67 1018.47 1018.30
1013.59 1013.95 1014.33 1014.71 1015.06 1015.36 1015.61 1015.83 1016.02 1016.22 1016.44 1016.69 1016.97 1017.28 1017.58 1017.88 1018.16 1018.41 1018.66 1018.89 1019.14 1019.40 1019.67 1019.96 1020.25 1020.52 1020.75 1020.94 1021.08 1021.16 1021.18 1021.15 1021.07 1020.93 1020.75 1020.53 1020.28 1020.01 1019.73 1019.47 1019.23 1019.01 1018.84
1013.45 1013.75 1014.07 1014.41 1014.73 1015.04 1015.32 1015.58 1015.84 1016.09 1016.35 1016.61 1016.89 1017.17 1017.46 1017.74 1018.03 1018.32 1018.62 1018.94 1019.27 1019.63 1019.99 1020.35 1020.69 1020.99 1021.25 1021.44 1021.58 1021.67 1021.70 1021.67 1021.60 1021.48 1021.31 1021.10 1020.85 1020.58 1020.31 1020.04 1019.79 1019.57 1019.39
1013.50 1013.72 1013.96 1014.22 1014.50 1014.79 1015.08 1015.38 1015.67 1015.97 1016.26 1016.54 1016.82 1017.08 1017.35 1017.61 1017.90 1018.22 1018.57 1018.95 1019.38 1019.82 1020.26 1020.68 1021.07 1021.40 1021.67 1021.88 1022.03 1022.12 1022.17 1022.16 1022.11 1022.02 1021.87 1021.68 1021.45 1021.19 1020.91 1020.65 1020.40 1020.18 1019.99
1013.78 1013.90 1014.04 1014.21 1014.42 1014.66 1014.94 1015.24 1015.56 1015.88 1016.19 1016.48 1016.75 1016.99 1017.24 1017.49 1017.78 1018.11 1018.51 1018.95 1019.44 1019.94 1020.45 1020.92 1021.35 1021.71 1022.00 1022.22 1022.39 1022.51 1022.58 1022.62 1022.61 1022.55 1022.44 1022.28 1022.08 1021.84 1021.58 1021.32 1021.07 1020.85 1020.66
1014.28 1014.30 1014.33 1014.39 1014.51 1014.68 1014.91 1015.19 1015.50 1015.82 1016.13 1016.42 1016.67 1016.90 1017.13 1017.37 1017.66 1018.01 1018.43 1018.92 1019.46 1020.01 1020.56 1021.07 1021.52 1021.90 1022.21 1022.46 1022.66 1022.82 1022.95 1023.03 1023.08 1023.09 1023.03 1022.92 1022.76 1022.55 1022.31 1022.06 1021.81 1021.59 1021.39
1014.95 1014.87 1014.79 1014.74 1014.75 1014.83 1014.99 1015.22 1015.49 1015.79 1016.08 1016.34 1016.58 1016.79 1017.01 1017.25 1017.54 1017.90 1018.35 1018.87 1019.43 1020.01 1020.59 1021.11 1021.59 1021.99 1022.32 1022.60 1022.85 1023.06 1023.25 1023.41 1023.54 1023.62 1023.63 1023.58 1023.46 1023.28 1023.07 1022.83 1022.58 1022.35 1022.14
1015.72 1015.56 1015.38 1015.22 1015.11 1015.09 1015.16 1015.32 1015.53 1015.78 1016.03 1016.26 1016.47 1016.66 1016.86 1017.10 1017.40 1017.78 1018.24 1018.77 1019.36 1019.95 1020.54 1021.07 1021.55 1021.97 1022.33 1022.64 1022.94 1023.21 1023.48 1023.73 1023.94 1024.10 1024.19 1024.21 1024.14 1024.00 1023.81 1023.58 1023.34 1023.10 1022.87
1016.52 1016.29 1016.03 1015.77 1015.57 1015.45 1015.43 1015.49 1015.62 1015.79 1015.98 1016.17 1016.34 1016.51 1016.69 1016.93 1017.23 1017.62 1018.09 1018.64 1019.23 1019.83 1020.41 1020.94 1021.42 1021.85 1022.23 1022.58 1022.92 1023.27 1023.61 1023.94 1024.25 1024.49 1024.67 1024.75 1024.74 1024.64 1024.48 1024.27 1024.03 1023.78 1023.55
1017.28 1017.01 1016.69 1016.37 1016.09 1015.88 1015.77 1015.74 1015.78 1015.87 1015.98 1016.09 1016.21 1016.34 1016.50 1016.72 1017.02 1017.41 1017.89 1018.43 1019.02 1019.62 1020.19 1020.72 1021.19 1021.63 1022.02 1022.41 1022.79 1023.19 1023.61 1024.02 1024.40 1024.73 1024.98 1025.14 1025.19 1025.15 1025.02 1024.84 1024.62 1024.38 1024.15
1018.00 1017.71 1017.36 1017.00 1016.67 1016.39 1016.19 1016.07 1016.02 1016.01 1016.03 1016.06 1016.10 1016.18 1016.30 1016.49 1016.77 1017.14 1017.61 1018.15 1018.73 1019.31 1019.87 1020.39 1020.87 1021.30 1021.71 1022.11 1022.53 1022.98 1023.44 1023.92 1024.37 1024.77 1025.10 1025.32 1025.45 1025.47 1025.40 1025.27 1025.09 1024.88 1024.67
Thickness
5758 5762 5764 5765 5766 5768 5769 5770 5771 5771 5772 5773 5773 5774 5774 5774 5775 5775 5775 5775 5775 5775 5775 5775 5775 5775 5774 5774 5774 5773 5773 5773 5772 5772 5771 5772 5772 5771 5771 5772 5771 5771 5771
5761 5762 5763 5764 5765 5766 5767 5768 5769 5769 5770 5770 5771 5771 5772 5772 5772 5772 5772 5772 5772 5772 5772 5772 5772 5772 5772 5771 5771 5771 5770 5770 5770 5769 5768 5768 5769 5769 5768 5769 5769 5769 5769
5760 5761 5762 5762 5763 5765 5766 5766 5767 5767 5768 5768 5768 5768 5769 5769 5769 5769 5769 5769 5769 5769 5769 5769 5770 5769 5769 5769 5768 5768 5767 5767 5766 5766 5765 5765 5765 5766 5766 5766 5766 5766 5766
5759 5759 5760 5761 5761 5762 5763 5764 5765 5765 5765 5765 5765 5765 5765 5766 5766 5766 5766 5766 5766 5766 5766 5766 5766 5766 5766 5766 5765 5765 5764 5764 5763 5762 5762 5762 5762 5763 5763 5763 5763 5763 5763
5757 5757 5758 5759 5759 5760 5761 5762 5762 5763 5763 5762 5762 5762 5762 5763 5763 5763 5763 5763 5762 5762 5762 5763 5763 5763 5763 5762 5762 5762 5762 5761 5761 5759 5759 5759 5759 5760 5760 5760 5759 5759 5760
5755 5755 5756 5756 5757 5757 5758 5758 5759 5760 5760 5759 5759 5759 5759 5759 5759 5759 5759 5759 5759 5758 5758 5759 5759 5759 5759 5759 5759 5759 5759 5759 5757 5756 5756 5756 5756 5757 5756 5756 5756 5756 5756
5752 5753 5754 5754 5754 5754 5754 5755 5756 5756 5756 5756 5756 5756 5756 5756 5755 5755 5755 5755 5755 5755 5755 5755 5755 5755 5755 5755 5755 5756 5756 5755 5753 5753 5752 5753 5753 5753 5753 5753 5752 5752 5752
5750 5751 5751 5750 5750 5750 5751 5751 5752 5752 5752 5752 5752 5752 5752 5752 5751 5751 5751 5751 5751 5751 5751 5751 5751 5751 5752 5751 5752 5753 5754 5752 5750 5749 5749 5749 5749 5749 5749 5748 5748 5748 5748
5747 5747 5746 5746 5746 5746 5747 5747 5747 5748 5748 5748 5748 5748 5748 5748 5747 5747 5747 5747 5747 5747 5747 5747 5747 5747 5747 5747 5748 5751 5751 5748 5745 5744 5744 5745 5745 5745 5745 5744 5743 5743 5743
5742 5742 5742 5742 5742 5743 5743 5743 5743 5743 5743 5743 5743 5743 5743 5743 5742 5742 5743 5742 5742 5742 5742 5742 5742 5743 5742 5742 5743 5744 5745 5743 5740 5739 5740 5740 5740 5740 5740 5739 5738 5738 5738
5737 5737 5738 5738 5738 5739 5739 5739 5739 5739 5739 5739 5738 5739 5738 5738 5737 5737 5738 5738 5738 5738 5738 5737 5737 5738 5737 5737 5737 5737 5736 5735 5734 5734 5735 5735 5735 5735 5735 5734 5733 5732 5733
5731 5733 5734 5734 5734 5734 5735 5734 5734 5734 5734 5734 5734 5734 5733 5733 5733 5733 5733 5733 5733 5733 5732 5732 5732 5732 5732 5731 5731 5731 5729 5729 5729 5729 5729 5730 5730 5730 5729 5728 5727 5727 5727
5729 5730 5731 5731 5731 5731 5730 5730 5730 5730 5730 5730 5730 5729 5729 5728 5728 5728 5728 5728 5727 5727 5726 5726 5726 5726 5726 5725 5725 5724 5723 5723 5722 5723 5723 5724 5724 5724 5723 5722 5722 5721 5721
5726 5727 5728 5728 5727 5727 5727 5726 5726 5726 5725 5725 5725 5725 5724 5724 5723 5723 5723 5722 5722 5721 5721 5720 5720 5720 5720 5719 5719 5718 5717 5717 5716 5716 5716 5717 5717 5717 5717 5716 5716 5715 5715
5723 5724 5725 5725 5724 5724 5723 5722 5721 5721 5720 5720 5720 5719 5719 5718 5718 5717 5717 5716 5716 5716 5715 5715 5714 5714 5713 5713 5712 5711 5710 5709 5710 5709 5709 5710 5710 5710 5710 5710 5709 5709 5709
5721 5721 5722 5722 5721 5720 5719 5717 5716 5716 5716 5715 5715 5714 5714 5714 5713 5712 5712 5711 5711 5710 5710 5710 5709 5708 5707 5706 5704 5704 5703 5703 5702 5702 5702 5702 5702 5702 5703 5703 5702 5702 5702
5718 5719 5719 5719 5717 5716 5715 5714 5712 5712 5711 5710 5710 5710 5709 5709 5708 5707 5706 5705 5705 5705 5704 5704 5703 5702 5700 5699 5697 5697 5696 5696 5695 5695 5695 5695 5695 5695 5696 5696 5696 5695 5695
5716 5716 5716 5716 5713 5712 5710 5709 5708 5707 5706 5705 5704 5704 5704 5703 5703 5702 5700 5699 5699 5699 5699 5698 5696 5695 5693 5691 5690 5690 5689 5689 5689 5688 5688 5688 5688 5688 5688 5688 5689 5689 5688
5714 5713 5711 5711 5709 5708 5706 5704 5703 5701 5701 5700 5699 5698 5698 5698 5697 5696 5695 5694 5694 5693 5692 5692 5689 5688 5686 5684 5683 5682 5681 5681 5681 5681 5681 5681 5681 5681 5681 5680 5681 5681 5681
5711 5710 5708 5706 5705 5703 5701 5699 5697 5696 5694 5694 5693 5692 5692 5692 5691 5691 5689 5688 5688 5686 5685 5684 5683 5682 5680 5678 5678 5675 5674 5674 5674 5673 5674 5674 5674 5674 5674 5673 5674 5674 5674
5707 5705 5704 5702 5700 5698 5695 5692 5690 5688 5688 5688 5688 5687 5686 5686 5685 5685 5683 5682 5681 5679 5678 5678 5677 5675 5673 5672 5669 5666 5666 5666 5666 5665 5666 5666 5666 5666 5666 5666 5666 5666 5667
5702 5701 5699 5698 5696 5695 5692 5690 5687 5685 5683 5682 5682 5681 5681 5681 5680 5679 5677 5676 5675 5673 5672 5671 5671 5668 5666 5666 5662 5658 5654 5654 5656 5657 5657 5658 5658 5658 5659 5659 5659 5659 5660
5696 5696 5695 5693 5692 5691 5689 5686 5683 5680 5677 5675 5675 5675 5675 5675 5674 5673 5671 5670 5669 5668 5665 5664 5664 5662 5659 5658 5658 5654 5647 5644 5645 5647 5649 5650 5650 5651 5652 5652 5653 5653 5653
5693 5693 5691 5690 5688 5686 5684 5681 5677 5673 5669 5669 5669 5669 5669 5669 5668 5667 5666 5664 5663 5662 5660 5659 5658 5656 5655 5652 5651 5650 5648 5645 5640 5638 5640 5642 5644 5644 5645 5646 5646 5646 5647
5690 5688 5687 5685 5683 5681 5679 5677 5673 5669 5666 5665 5665 5663 5662 5662 5662 5661 5660 5659 5657 5656 5655 5654 5652 5651 5649 5646 5645 5644 5643 5640 5638 5635 5631 5633 5635 5637 5638 5639 5639 5639 5640
5685 5684 5682 5679 5677 5675 5674 5672 5668 5665 5663 5660 5658 5657 5656 5655 5655 5655 5654 5653 5652 5650 5649 5648 5647 5645 5643 5642 5640 5639 5637 5634 5632 5630 5627 5626 5627 5629 5631 5632 5633 5633 5633